SONATE-2
1 59112U 24043Q   26230.95628137  .00049431  00000-0  53541-3 0  9997
2 59112  97.5597  25.4601 0004772 332.6898  27.4109 15.63408590137688
GRBBeta
1 60237U 24128C   26231.32817200  .00003880  00000-0  26906-3 0  9997
2 60237  61.9916 354.6685 0031853 148.5488 211.7519 15.07024051115780
Curium One
1 60242U 24128H   26231.28877286  .00008499  00000-0  48127-3 0  9998
2 60242  61.9799 342.1383 0030921 143.8898 216.4294 15.13319059116000
ROBUSTA-3A
1 60243U 24128J   26231.29004588  .00008674  00000-0  50232-3 0  9992
2 60243  61.9882 344.9618 0032855 140.7380 219.6107 15.12436995115965
CatSat
1 60246U 24125J   26231.34065913  .00094681  00000-0  88462-3 0  9996
2 60246  97.2024  85.0258 0014692 305.5674  54.4217 15.66853349117253
HYPERVIEW-1G (RS66S)
1 61772U 24199AP  26230.11543498  .07890463  24672-5  93922-3 0  9997
2 61772  97.2456 114.2453 0006603 245.8477 114.2131 16.36574258144515
AO-123
1 61781U 24199AY  26231.61364362  .00008295  00000-0  23430-3 0  9992
2 61781  97.2904  99.7185 0015413  82.2200 278.0794 15.36492886143662
LASARsat
1 62391U 24247Q   26231.39798668  .00038211  00000-0  66465-3 0  9995
2 62391  44.9721 265.9729 0008570  14.1246 345.9883 15.50164107 93112
CroCube
1 62394U 24247T   26229.44050543  .00030135  00000-0  48363-3 0  9998
2 62394  44.9696 273.2151 0008904  10.0822 350.0248 15.52522684 92855
JINJUSat 1B
1 63210U 25052A   26231.53223255  .00018694  00000-0  54684-3 0  9995
2 63210  97.3907 128.4279 0002530 168.3937 191.7365 15.35308065 79812
NUSHSAT 1
1 63211U 25052B   26231.65917040  .00023345  00000-0  62007-3 0  9998
2 63211  97.3879 129.3622 0002089 162.0936 198.0383 15.38272902 79893
TEVEL2-4
1 63213U 25052D   26231.45263773  .00021816  00000-0  61073-3 0  9998
2 63213  97.3802 128.0148 0001199 167.6376 192.4898 15.36655458 79821
TEVEL2-5
1 63214U 25052E   26231.15530461  .00021024  00000-0  59285-3 0  9990
2 63214  97.3800 127.6451 0000992 168.9213 191.2053 15.36435683 79776
TEVEL2-6
1 63215U 25052F   26231.16907876  .00020867  00000-0  58910-3 0  9998
2 63215  97.3806 127.6439 0000935 166.1479 193.9791 15.36401580 79777
TEVEL2-1
1 63217U 25052H   26230.70028907  .00016822  00000-0  48523-3 0  9993
2 63217  97.3776 126.7196 0000354 218.7603 141.3615 15.35773462 79685
TEVEL2-3
1 63218U 25052J   26230.69235963  .00017093  00000-0  49187-3 0  9992
2 63218  97.3778 126.7429 0000274 183.9286 176.1955 15.35843909 79685
TEVEL2-2
1 63219U 25052K   26231.15622922  .00020074  00000-0  57774-3 0  9994
2 63219  97.3775 127.1799 0000404 218.9609 141.1606 15.35806037 79755
TEVEL2-9
1 63237U 25052AD  26230.69623339  .00015400  00000-0  47528-3 0  9998
2 63237  97.3835 125.9512 0003588 283.2108  76.8734 15.33650877 79603
TEVEL2-7
1 63238U 25052AE  26231.14166131  .00017758  00000-0  55311-3 0  9999
2 63238  97.3842 126.2835 0003702 283.6149  76.4681 15.33325218 79662
TEVEL2-8
1 63239U 25052AF  26231.15048421  .00018006  00000-0  56098-3 0  9992
2 63239  97.3841 126.2679 0003742 286.4815  73.6016 15.33313813 79662
SPIRONE
1 66657U 25274H   26231.22650256  .00001975  00000-0  19149-3 0  9991
2 66657  97.7467 159.6230 0012455 157.0927 203.0851 14.93762825 39633
K-HERO
1 66660U 25274L   26230.74513207  .00001671  00000-0  16123-3 0  9997
2 66660  97.7474 159.3550 0014188 163.8981 196.2693 14.94157646 39577
SNUGLITE-III DURI
1 66661U 25274M   26230.79872159  .00001153  00000-0  11281-3 0  9992
2 66661  97.7470 159.4287 0014777 165.1341 195.0317 14.94173923 39588
SAKHACUBE-CHOLBON
1 67290U 25313AU  26231.46241771  .00010567  00000-0  41422-3 0  9999
2 67290  97.3885 305.7381 0010558 127.8704 232.3491 15.25897371 35629
RS95S (QMR-KWT-2)
1 67291U 25313AV  26231.51369533  .00015088  00000-0  55768-3 0  9994
2 67291  97.3886 306.1182 0010170 125.8529 234.3656 15.27764494 35657
Ten-Koh2
1 68261U 25241B   26230.82702339  .00007099  00000-0  29751-3 0  9996
2 68261  51.6618  21.3421 0006220 349.4362  10.6485 15.24559603 24466
JACK-002
1 68417U 26067B   26230.84347183  .00005952  00000-0  27899-3 0  9997
2 68417  97.4619 188.7076 0003980  73.9847 286.1826 15.20060652 21462
DISCO 2
1 68431U 26067R   26230.67687530  .00007075  00000-0  33258-3 0  9991
2 68431  97.4652 188.5364 0003942 111.5336 248.6319 15.19893511 21436
HADES-SA (SpinnyONE)
1 68446U 26067AG  26230.42971290  .00018041  00000-0  81609-3 0  9997
2 68446  97.4447 187.8971 0005183 195.7118 164.3958 15.20960370 21388
PARUS-6U1
1 68456U 26067AS  26230.81809457  .00004829  00000-0  24020-3 0  9999
2 68456  97.4604 188.2619 0004908 185.7306 174.3872 15.18083783 21433
SAL-E
1 68458U 26067AU  26231.58958630  .00007162  00000-0  34979-3 0  9991
2 68458  97.4528 188.9299 0004851 192.0687 168.0432 15.18553120 21553
FSI-SAT 2
1 68792U 26088A   26230.89737138  .00004482  00000-0  30089-3 0  9996
2 68792  97.5149  18.6312 0013037 250.9371 109.0445 15.07249701 17738
OrigamiSat 2
1 68795U 26088D   26230.94279014  .00012745  00000-0  78675-3 0  9993
2 68795  97.5151  19.0312 0014124 218.1752 141.8478 15.09952718 17760
ARICA 2
1 68796U 26088E   26231.30399204  .00004532  00000-0  29120-3 0  9995
2 68796  97.5143  19.3007 0014659 218.0167 142.0028 15.08847365 17818
WASEDA-SAT-ZERO-II
1 68797U 26088F   26231.15424898  .00006486  00000-0  41051-3 0  9994
2 68797  97.5142  19.1894 0014483 217.6024 142.4194 15.09238331 17795
MANGARO-II-Piscus
1 68798U 26088G   26231.27621646  .00003585  00000-0  22896-3 0  9991
2 68798  97.5157  19.3497 0017894 221.2044 138.7836 15.09160624 17818
CO-128
1 69912U 26156AV  26231.43159508  .00001211  00000-0  12841-3 0  9990
2 69912  97.7511 131.1223 0003091  30.1257 330.0139 14.90881491  6429
MARINA
1 69920U 26156BD  26231.46501336  .00002025  00000-0  20482-3 0  9996
2 69920  97.7479 131.2164 0008072  22.8804 337.2773 14.92071082  6439
IO-86
1 40931U          26199.45381863  .00000000  00000-0  77536-4 0    07
2 40931   6.0006 322.6653 0012733 338.8432 273.6875 14.79294310    03
LILIUM-4                
1 71922C 26067AC  26089.50133053 -.00014632  00000+0 -74472-3 0    04
2 71922  97.4497  49.1617 0004341   5.9603 355.7042 15.16896692    16
